GW0655 Weather Reports


time (UTC)temp
C
wind
direction
speed
KPH
gust
KPH
rain 1hr
cm
rain 24hr
cm
rain mn
cm
humidity
%
barometer
mb
20260905055217 26 246 0.0 0.0 0.00 0.00 0.00 79 1015.5
20260905054712 26 248 0.0 0.0 0.00 0.00 0.00 79 1015.5
20260905054209 26 227 1.6 1.6 0.00 0.00 0.00 78 1015.5
20260905053708 26 225 0.0 1.6 0.00 0.00 0.00 78 1015.5
20260905053202 27 165 0.0 1.6 0.00 0.00 0.00 77 1015.5
20260905052657 27 249 0.0 0.0 0.00 0.00 0.00 77 1015.5
20260905052152 27 232 0.0 1.6 0.00 0.00 0.00 77 1015.2
20260905051646 27 255 0.0 0.0 0.00 0.00 0.00 76 1015.8
20260905051143 27 137 1.6 3.2 0.00 0.00 0.00 76 1015.8
20260905050639 27 184 0.0 1.6 0.00 0.00 0.00 76 1015.5
20260905050136 27 229 1.6 1.6 0.00 0.00 0.00 76 1015.5
20260905045635 27 216 1.6 1.6 0.00 0.00 0.00 76 1015.5
20260905045131 27 211 0.0 0.0 0.00 0.00 0.00 75 1015.5
20260905044631 27 250 0.0 1.6 0.00 0.00 0.00 75 1015.5
20260905044126 27 215 0.0 1.6 0.00 0.00 0.00 75 1015.5
20260905043624 27 186 1.6 1.6 0.00 0.00 0.00 75 1015.5
20260905043120 27 215 0.0 1.6 0.00 0.00 0.00 75 1015.5
20260905042619 27 236 0.0 0.0 0.00 0.00 0.00 74 1015.5
20260905042114 27 189 1.6 1.6 0.00 0.00 0.00 74 1015.5
20260905041609 27 222 0.0 1.6 0.00 0.00 0.00 74 1015.8
20260905041104 27 211 0.0 0.0 0.00 0.00 0.00 74 1015.5
20260905040559 27 220 0.0 0.0 0.00 0.00 0.00 74 1015.5
20260905040057 27 243 0.0 0.0 0.00 0.00 0.00 73 1015.5
20260905035553 27 190 0.0 0.0 0.00 0.00 0.00 72 1015.5
20260905035049 27 157 0.0 0.0 0.00 0.00 0.00 72 1015.2
20260905034545 28 252 0.0 1.6 0.00 0.00 0.00 72 1015.5
20260905034045 28 216 1.6 1.6 0.00 0.00 0.00 71 1015.5
20260905033538 28 235 0.0 1.6 0.00 0.00 0.00 71 1015.5
20260905033034 28 236 0.0 1.6 0.00 0.00 0.00 71 1015.5
20260905032535 28 203 1.6 1.6 0.00 0.00 0.00 70 1015.5
20260905032030 28 157 1.6 3.2 0.00 0.00 0.00 70 1015.2
20260905031526 28 237 0.0 0.0 0.00 0.00 0.00 69 1015.5
20260905031025 28 221 0.0 0.0 0.00 0.00 0.00 68 1015.2
20260905030520 28 210 1.6 1.6 0.00 0.00 0.00 68 1015.2
20260905030015 28 205 1.6 1.6 0.00 0.00 0.00 68 1015.2
20260905025510 28 233 0.0 1.6 0.00 0.00 0.00 67 1015.2
20260905025006 28 238 1.6 1.6 0.00 0.00 0.00 67 1015.2
20260905024501 28 205 1.6 3.2 0.00 0.00 0.00 67 1015.2
20260905023956 28 176 3.2 3.2 0.00 0.00 0.00 67 1014.8
20260905023451 28 200 0.0 0.0 0.00 0.00 0.00 68 1015.2
20260905022950 28 243 1.6 1.6 0.00 0.00 0.00 68 1014.8
20260905022445 28 248 0.0 0.0 0.00 0.00 0.00 67 1015.2
20260905021941 28 241 0.0 0.0 0.00 0.00 0.00 67 1014.8
20260905021440 28 114 1.6 1.6 0.00 0.00 0.00 67 1014.5
20260905020936 28 142 0.0 1.6 0.00 0.00 0.00 67 1014.5
20260905020435 29 255 0.0 0.0 0.00 0.00 0.00 66 1014.5
20260905015930 29 247 0.0 0.0 0.00 0.00 0.00 66 1014.5
20260905015428 29 214 1.6 1.6 0.00 0.00 0.00 66 1014.5
20260905014927 29 238 0.0 0.0 0.00 0.00 0.00 66 1014.1
20260905014423 29 241 1.6 1.6 0.00 0.00 0.00 66 1014.5
20260905013918 30 239 0.0 1.6 0.00 0.00 0.00 66 1014.5
20260905013415 30 240 0.0 0.0 0.00 0.00 0.00 66 1014.5
20260905012910 30 203 1.6 1.6 0.00 0.00 0.00 66 1014.1
20260905012405 30 172 1.6 1.6 0.00 0.00 0.00 65 1014.1
20260905011902 30 188 1.6 1.6 0.00 0.00 0.00 65 1014.5
20260905011357 30 239 1.6 1.6 0.00 0.00 0.00 65 1014.5
20260905010853 30 237 4.8 4.8 0.00 0.00 0.00 65 1014.1
20260905010347 30 228 3.2 4.8 0.00 0.00 0.00 64 1014.1
20260905005843 30 156 3.2 3.2 0.00 0.00 0.00 64 1013.8
20260905005339 30 131 4.8 4.8 0.00 0.00 0.00 63 1013.8
20260905004834 30 106 4.8 4.8 0.00 0.00 0.00 63 1013.5
20260905004328 31 121 1.6 3.2 0.00 0.00 0.00 62 1013.8
20260905003824 31 170 1.6 3.2 0.00 0.00 0.00 62 1013.8
20260905003320 31 166 1.6 8.0 0.00 0.00 0.00 62 1013.8
20260905002815 31 80 4.8 8.0 0.00 0.00 0.00 62 1013.8
20260905002309 31 172 4.8 4.8 0.00 0.00 0.00 62 1013.8
20260905001804 31 86 3.2 4.8 0.00 0.00 0.00 62 1013.8
20260905001304 31 142 8.0 11.3 0.00 0.00 0.00 61 1013.8
20260905000759 31 125 6.4 8.0 0.00 0.00 0.00 61 1013.8
20260905000255 31 165 9.7 11.3 0.00 0.00 0.00 61 1013.8
20260904235750 31 78 8.0 8.0 0.00 0.00 0.00 60 1013.5
20260904235250 32 184 6.4 8.0 0.00 0.00 0.00 58 1013.5
20260904234745 32 250 3.2 3.2 0.00 0.00 0.00 57 1013.8
20260904234240 32 137 4.8 8.0 0.00 0.00 0.00 56 1013.5
20260904233736 32 161 4.8 9.7 0.00 0.00 0.00 55 1013.8
20260904233232 32 206 3.2 4.8 0.00 0.00 0.00 55 1013.8
20260904232728 32 165 1.6 3.2 0.00 0.00 0.00 55 1013.8
20260904232224 32 38 4.8 9.7 0.00 0.00 0.00 55 1013.5
20260904231719 32 15 3.2 4.8 0.00 0.00 0.00 55 1013.5
20260904231215 32 43 0.0 1.6 0.00 0.00 0.00 55 1013.5
20260904230709 32 106 3.2 9.7 0.00 0.00 0.00 55 1013.5
20260904230203 32 75 0.0 1.6 0.00 0.00 0.00 55 1013.8
20260904225702 32 130 6.4 9.7 0.00 0.00 0.00 56 1013.5
20260904225156 32 184 6.4 8.0 0.00 0.00 0.00 56 1013.5
20260904224650 32 151 8.0 12.9 0.00 0.00 0.00 57 1013.5
20260904224145 32 152 9.7 12.9 0.00 0.00 0.00 57 1013.8
20260904223644 32 139 8.0 12.9 0.00 0.00 0.00 57 1013.5
20260904223140 32 132 8.0 9.7 0.00 0.00 0.00 57 1013.8
20260904222636 32 223 4.8 4.8 0.00 0.00 0.00 58 1013.8
20260904222131 32 22 6.4 8.0 0.00 0.00 0.00 57 1013.8
20260904221631 32 137 6.4 11.3 0.00 0.00 0.00 56 1013.8
20260904221125 33 43 11.3 17.7 0.00 0.00 0.00 56 1013.5
20260904220620 33 86 8.0 12.9 0.00 0.00 0.00 54 1013.8
20260904220115 35 176 6.4 8.0 0.00 0.00 0.00 48 1013.5
20260904215610 35 168 4.8 4.8 0.00 0.00 0.00 47 1013.5
20260904215106 35 208 1.6 1.6 0.00 0.00 0.00 47 1013.5
20260904214601 35 166 1.6 3.2 0.00 0.00 0.00 48 1013.8
20260904214057 34 290 1.6 1.6 0.00 0.00 0.00 49 1013.8
20260904213554 35 223 3.2 3.2 0.00 0.00 0.00 48 1014.1
20260904213052 35 235 4.8 8.0 0.00 0.00 0.00 46 1014.1
20260904212551 35 195 4.8 11.3 0.00 0.00 0.00 45 1013.8
20260904212046 35 193 11.3 14.5 0.00 0.00 0.00 47 1014.1
20260904211545 35 253 6.4 9.7 0.00 0.00 0.00 48 1014.1
20260904211041 35 204 8.0 9.7 0.00 0.00 0.00 50 1014.5
20260904210540 35 243 1.6 1.6 0.00 0.00 0.00 49 1014.5
20260904210037 35 213 8.0 12.9 0.00 0.00 0.00 49 1014.5
20260904205537 35 269 8.0 9.7 0.00 0.00 0.00 49 1014.5
20260904205033 34 240 4.8 4.8 0.00 0.00 0.00 54 1014.5
20260904204529 33 211 3.2 4.8 0.00 0.00 0.00 55 1014.5
20260904204025 32 256 1.6 1.6 0.00 0.00 0.00 58 1014.5
20260904203521 32 214 4.8 4.8 0.00 0.00 0.00 60 1014.5
20260904203017 32 254 3.2 4.8 0.00 0.00 0.00 59 1014.8
20260904202513 32 243 3.2 3.2 0.00 0.00 0.00 61 1014.8
20260904202009 32 265 3.2 3.2 0.00 0.00 0.00 61 1014.8
20260904201503 31 252 1.6 1.6 0.00 0.00 0.00 61 1015.2
20260904200959 32 303 4.8 4.8 0.00 0.00 0.00 61 1015.2
20260904200457 31 208 4.8 4.8 0.00 0.00 0.00 64 1015.2
20260904195952 31 176 1.6 1.6 0.00 0.00 0.00 65 1015.2
20260904195451 31 259 1.6 1.6 0.00 0.00 0.00 65 1015.2
20260904194950 31 203 1.6 3.2 0.00 0.00 0.00 66 1015.5
20260904194445 31 252 3.2 3.2 0.00 0.00 0.00 66 1015.2
20260904193940 30 263 3.2 3.2 0.00 0.00 0.00 69 1015.2
20260904193435 30 225 1.6 1.6 0.00 0.00 0.00 71 1015.5
20260904192931 30 230 3.2 3.2 0.00 0.00 0.00 71 1015.2
20260904192426 30 199 3.2 3.2 0.00 0.00 0.00 71 1015.5
20260904191922 30 204 1.6 3.2 0.00 0.00 0.00 71 1015.5
20260904191418 30 250 1.6 3.2 0.00 0.00 0.00 73 1015.5
20260904190915 29 213 1.6 1.6 0.00 0.00 0.00 75 1015.8
20260904190410 29 249 4.8 4.8 0.00 0.00 0.00 75 1015.8
20260904185907 28 233 1.6 3.2 0.00 0.00 0.00 76 1016.2
20260904185402 28 266 1.6 1.6 0.00 0.00 0.00 77 1015.8
20260904184901 28 199 3.2 4.8 0.00 0.00 0.00 78 1015.8
20260904184356 28 236 4.8 4.8 0.00 0.00 0.00 80 1016.2
20260904183851 28 196 3.2 3.2 0.00 0.00 0.00 79 1016.2
20260904183347 28 220 4.8 4.8 0.00 0.00 0.00 80 1016.5
20260904182842 28 266 0.0 0.0 0.00 0.00 0.00 82 1016.2
20260904182337 29 257 1.6 3.2 0.00 0.00 0.00 80 1016.2
20260904181832 30 262 0.0 1.6 0.00 0.00 0.00 76 1016.5
20260904181332 30 199 4.8 4.8 0.00 0.00 0.00 70 1016.2
20260904180827 30 188 1.6 1.6 0.00 0.00 0.00 71 1016.5
20260904180323 30 252 3.2 3.2 0.00 0.00 0.00 72 1016.5
20260904175822 30 235 0.0 0.0 0.00 0.00 0.00 71 1016.9
20260904175320 30 224 3.2 4.8 0.00 0.00 0.00 71 1016.5
20260904174815 30 225 4.8 8.0 0.00 0.00 0.00 71 1016.5
20260904174311 30 230 1.6 1.6 0.00 0.00 0.00 73 1016.9
20260904173807 30 218 0.0 0.0 0.00 0.00 0.00 74 1016.5
20260904173302 30 269 0.0 0.0 0.00 0.00 0.00 75 1016.5
20260904172758 30 205 3.2 3.2 0.00 0.00 0.00 74 1016.5
20260904172257 30 272 1.6 1.6 0.00 0.00 0.00 74 1016.9
20260904171752 30 252 0.0 0.0 0.00 0.00 0.00 75 1016.9
20260904171247 29 224 0.0 1.6 0.00 0.00 0.00 76 1017.2
20260904170744 29 205 4.8 4.8 0.00 0.00 0.00 75 1016.9
20260904170239 29 185 1.6 3.2 0.00 0.00 0.00 75 1016.9
20260904165738 29 243 3.2 3.2 0.00 0.00 0.00 75 1016.9
20260904165233 29 234 3.2 3.2 0.00 0.00 0.00 76 1016.9
20260904164732 29 196 3.2 3.2 0.00 0.00 0.00 75 1017.2
20260904164228 29 237 1.6 1.6 0.00 0.00 0.00 77 1016.9
20260904163724 28 205 4.8 4.8 0.00 0.00 0.00 77 1016.9
20260904163219 28 198 4.8 4.8 0.00 0.00 0.00 77 1016.9
20260904162718 28 230 6.4 9.7 0.00 0.00 0.00 77 1016.9
20260904162213 29 211 4.8 4.8 0.00 0.00 0.00 76 1016.5
20260904161709 29 243 3.2 4.8 0.00 0.00 0.00 76 1016.9
20260904161203 29 194 4.8 9.7 0.00 0.00 0.00 76 1016.5
20260904160700 29 274 4.8 9.7 0.00 0.00 0.00 76 1016.5
20260904160154 29 215 4.8 4.8 0.00 0.00 0.00 76 1016.5
20260904155649 29 187 3.2 3.2 0.00 0.00 0.00 77 1016.9
20260904155149 29 179 4.8 8.0 0.00 0.00 0.00 77 1016.5
20260904154647 29 225 4.8 4.8 0.00 0.00 0.00 76 1016.5
20260904154142 28 186 4.8 4.8 0.00 0.00 0.00 77 1016.9
20260904153637 28 261 3.2 3.2 0.00 0.00 0.00 76 1016.5
20260904153132 28 242 4.8 4.8 0.00 0.00 0.00 76 1016.5
20260904152629 28 220 1.6 3.2 0.00 0.00 0.00 78 1016.5
20260904152124 28 243 3.2 3.2 0.00 0.00 0.00 80 1016.2
20260904151619 28 217 11.3 12.9 0.00 0.00 0.00 80 1016.2
20260904151117 28 208 4.8 8.0 0.00 0.00 0.00 82 1016.2
20260904150613 28 259 3.2 4.8 0.00 0.00 0.00 84 1016.2
20260904150109 28 272 3.2 4.8 0.00 0.00 0.00 84 1016.5
20260904145607 27 215 3.2 4.8 0.00 0.00 0.00 84 1016.2
20260904145102 27 244 0.0 0.0 0.00 0.00 0.00 85 1016.2
20260904144558 27 256 3.2 8.0 0.00 0.00 0.00 86 1016.5
20260904144054 27 262 1.6 1.6 0.00 0.00 0.00 86 1016.5
20260904143549 27 277 3.2 3.2 0.00 0.00 0.00 86 1016.2
20260904143046 27 237 4.8 4.8 0.00 0.00 0.00 87 1016.2
20260904142542 27 253 1.6 1.6 0.00 0.00 0.00 88 1016.2
20260904142037 27 191 3.2 3.2 0.00 0.00 0.00 88 1016.2
20260904141532 27 221 0.0 1.6 0.00 0.00 0.00 89 1016.2
20260904141028 27 248 1.6 3.2 0.00 0.00 0.00 89 1016.2
20260904140528 27 258 3.2 3.2 0.00 0.00 0.00 89 1016.2
20260904140022 27 217 6.4 8.0 0.00 0.00 0.00 89 1016.2
20260904135521 27 243 6.4 9.7 0.00 0.00 0.00 89 1015.8
20260904135018 27 279 4.8 8.0 0.00 0.00 0.00 89 1015.8
20260904134513 27 244 3.2 3.2 0.00 0.00 0.00 89 1016.2
20260904134007 27 216 3.2 4.8 0.00 0.00 0.00 88 1015.8
20260904133501 27 222 1.6 3.2 0.00 0.00 0.00 88 1016.2
20260904132957 27 194 1.6 3.2 0.00 0.00 0.00 88 1016.2
20260904132458 27 264 0.0 0.0 0.00 0.00 0.00 88 1016.2
20260904131952 27 266 1.6 1.6 0.00 0.00 0.00 88 1016.2
20260904131447 26 247 0.0 0.0 0.00 0.00 0.00 89 1016.2
20260904130943 26 287 1.6 3.2 0.00 0.00 0.00 89 1016.2
20260904130442 26 202 3.2 3.2 0.00 0.00 0.00 89 1015.8
20260904125937 26 218 3.2 3.2 0.00 0.00 0.00 89 1015.8
20260904125433 26 249 1.6 3.2 0.00 0.00 0.00 89 1015.8
20260904124932 26 220 1.6 1.6 0.00 0.00 0.00 90 1015.5
20260904124429 26 221 1.6 3.2 0.00 0.00 0.00 90 1015.8
20260904123924 26 242 1.6 1.6 0.00 0.00 0.00 89 1015.8
20260904123424 26 200 1.6 3.2 0.00 0.00 0.00 89 1015.5
20260904122920 26 178 1.6 3.2 0.00 0.00 0.00 89 1015.5
20260904122420 26 239 0.0 0.0 0.00 0.00 0.00 89 1015.5
20260904121914 26 219 1.6 1.6 0.00 0.00 0.00 89 1015.5
20260904121411 26 238 1.6 3.2 0.00 0.00 0.00 89 1015.5
20260904120907 26 224 1.6 1.6 0.00 0.00 0.00 89 1015.5
20260904120403 26 256 1.6 1.6 0.00 0.00 0.00 89 1015.2
20260904115857 26 204 4.8 4.8 0.00 0.00 0.00 89 1015.2
20260904115352 26 239 1.6 1.6 0.00 0.00 0.00 89 1015.2
20260904114847 26 237 1.6 3.2 0.00 0.00 0.00 89 1015.2
20260904114342 26 223 1.6 1.6 0.00 0.00 0.00 88 1015.2
20260904113837 26 227 3.2 3.2 0.00 0.00 0.00 88 1015.2
20260904113336 26 139 4.8 4.8 0.00 0.00 0.00 88 1015.2
20260904112832 26 202 1.6 1.6 0.00 0.00 0.00 88 1015.2
20260904112327 26 130 1.6 3.2 0.00 0.00 0.00 88 1015.2
20260904111822 26 169 6.4 9.7 0.00 0.00 0.00 88 1015.2
20260904111318 26 187 1.6 3.2 0.00 0.00 0.00 87 1015.2
20260904110814 26 181 4.8 8.0 0.00 0.00 0.00 88 1015.2
20260904110313 26 186 4.8 4.8 0.00 0.00 0.00 87 1015.2
20260904105807 26 157 3.2 3.2 0.00 0.00 0.00 87 1015.2
20260904105305 26 186 3.2 3.2 0.00 0.00 0.00 87 1015.2
20260904104757 26 201 3.2 4.8 0.00 0.00 0.00 87 1014.8
20260904104253 26 114 1.6 3.2 0.00 0.00 0.00 87 1014.8
20260904103749 26 139 4.8 8.0 0.00 0.00 0.00 87 1014.8
20260904103243 26 200 0.0 0.0 0.00 0.00 0.00 86 1014.8
20260904102739 26 178 1.6 3.2 0.00 0.00 0.00 86 1015.2
20260904102235 26 205 0.0 1.6 0.00 0.00 0.00 86 1014.8
20260904101731 26 212 0.0 1.6 0.00 0.00 0.00 86 1014.8
20260904101227 26 198 0.0 0.0 0.00 0.00 0.00 85 1014.8
20260904100722 26 245 0.0 0.0 0.00 0.00 0.00 85 1014.8
20260904100219 26 158 3.2 3.2 0.00 0.00 0.00 85 1014.8
20260904095717 26 166 1.6 1.6 0.00 0.00 0.00 85 1014.8
20260904095212 26 162 0.0 1.6 0.00 0.00 0.00 85 1014.5
20260904094707 26 229 1.6 1.6 0.00 0.00 0.00 85 1014.8
20260904094203 26 262 1.6 1.6 0.00 0.00 0.00 85 1014.8
20260904093659 26 222 1.6 3.2 0.00 0.00 0.00 85 1014.5
20260904093158 26 231 1.6 1.6 0.00 0.00 0.00 85 1014.5
20260904092655 27 245 0.0 1.6 0.00 0.00 0.00 85 1014.5
20260904092150 27 245 0.0 1.6 0.00 0.00 0.00 84 1014.5
20260904091647 27 239 0.0 0.0 0.00 0.00 0.00 84 1014.5
20260904091146 27 225 1.6 1.6 0.00 0.00 0.00 84 1014.5
20260904090642 27 196 3.2 3.2 0.00 0.00 0.00 84 1014.8
20260904090137 27 182 3.2 3.2 0.00 0.00 0.00 84 1014.5
20260904085637 27 213 1.6 1.6 0.00 0.00 0.00 84 1014.5
20260904085132 27 234 1.6 1.6 0.00 0.00 0.00 84 1014.5
20260904084627 27 239 1.6 1.6 0.00 0.00 0.00 84 1014.5
20260904084124 27 216 3.2 3.2 0.00 0.00 0.00 84 1014.5
20260904083620 27 237 0.0 1.6 0.00 0.00 0.00 83 1014.5
20260904083115 27 214 1.6 1.6 0.00 0.00 0.00 83 1014.5
20260904082610 27 257 0.0 0.0 0.00 0.00 0.00 83 1014.5
20260904082106 27 236 1.6 1.6 0.00 0.00 0.00 83 1014.5
20260904081601 27 237 3.2 3.2 0.00 0.00 0.00 83 1014.5
20260904081056 27 233 6.4 9.7 0.00 0.00 0.00 83 1014.5
20260904080552 27 201 1.6 1.6 0.00 0.00 0.00 83 1014.5
20260904080048 27 221 3.2 3.2 0.00 0.00 0.00 83 1014.5
20260904075543 27 238 1.6 1.6 0.00 0.00 0.00 82 1014.5
20260904075038 27 198 1.6 1.6 0.00 0.00 0.00 82 1014.5
20260904074537 27 209 1.6 1.6 0.00 0.00 0.00 82 1014.8
20260904074032 27 206 1.6 1.6 0.00 0.00 0.00 82 1014.5
20260904073527 27 213 1.6 3.2 0.00 0.00 0.00 82 1014.5
20260904073023 27 244 1.6 3.2 0.00 0.00 0.00 81 1014.8
20260904072519 27 223 1.6 1.6 0.00 0.00 0.00 81 1014.8
20260904072014 27 185 1.6 3.2 0.00 0.00 0.00 81 1015.2
20260904071509 27 203 6.4 8.0 0.00 0.00 0.00 81 1014.5
20260904071004 27 159 3.2 3.2 0.00 0.00 0.00 81 1014.8
20260904070503 27 183 4.8 4.8 0.00 0.00 0.00 81 1015.2
20260904065957 27 209 3.2 8.0 0.00 0.00 0.00 80 1014.8
20260904065453 27 218 4.8 4.8 0.00 0.00 0.00 80 1014.8
20260904064949 27 211 4.8 8.0 0.00 0.00 0.00 80 1015.2
20260904064445 27 237 1.6 1.6 0.00 0.00 0.00 80 1015.2
20260904063939 27 257 1.6 3.2 0.00 0.00 0.00 80 1015.2
20260904063436 27 223 1.6 1.6 0.00 0.00 0.00 80 1014.8
20260904062930 27 192 1.6 1.6 0.00 0.00 0.00 79 1014.8
20260904062427 27 210 1.6 1.6 0.00 0.00 0.00 79 1014.8
20260904061922 27 108 1.6 3.2 0.00 0.00 0.00 79 1015.2
20260904061419 27 240 3.2 3.2 0.00 0.00 0.00 79 1015.2
20260904060914 27 155 4.8 9.7 0.00 0.00 0.00 79 1014.8
20260904060410 27 233 3.2 3.2 0.00 0.00 0.00 79 1015.2
20260904055905 27 216 3.2 8.0 0.00 0.00 0.00 79 1015.2